Date String (YYYY-MM-DD hh:mm:ss) UTC,Instrument flags,Ambient pressure (hPa),Sample flow (lpm),Bypass flow (lpm),Sample temperature (°C),Ambient temperature (°C),ASC tube jacket temperature (°C),LED temperature (°C),Box temperature (°C),Sample RH (%),Span deviation,Mass concentration (μg/m³),Mass concentration (μg/m³),Mass concentration (μg/m³)
DateTimeUTC,F1_M11,P_M11,Q1_M11,Q2_M11,T1_M11,T2_M11,T3_M11,T4_M11,T5_M11,U1_M11,ZSPAN_M11,X0_M11,X2_M11,X1_M11
2023-02-12 21:00:00,,0824.7,5.02,0.00,22.7,21.1,00.0,31.7,24.5,11.8,0000.0,0009.24,0005.54,0005.15
2023-02-12 21:01:00,,0824.8,5.03,0.00,22.7,21.1,00.0,31.7,24.5,12.0,0000.0,0009.24,0005.56,0005.19
2023-02-12 21:02:00,,0824.8,5.02,0.00,22.7,21.1,00.0,31.6,24.5,12.1,0000.0,0009.30,0005.62,0005.25
2023-02-12 21:03:00,,0824.7,4.99,0.00,22.7,21.1,00.0,31.6,24.5,11.8,0000.0,0009.36,0005.70,0005.33
2023-02-12 21:04:00,,0824.9,5.03,0.00,22.7,21.1,00.0,31.6,24.5,11.8,0000.0,0009.54,0005.77,0005.40
2023-02-12 21:05:00,,0824.6,4.99,0.00,22.7,21.1,00.0,31.6,24.5,11.8,0000.0,0010.24,0005.84,0005.48
2023-02-12 21:06:00,,0824.7,5.00,0.00,22.7,21.1,00.0,31.6,24.5,11.6,0000.0,0010.24,0005.93,0005.56
2023-02-12 21:07:00,,0824.7,4.99,0.00,22.7,21.0,00.0,31.6,24.4,11.6,0000.0,0010.00,0005.96,0005.62
2023-02-12 21:08:00,,0824.6,4.98,0.00,22.7,21.0,00.0,31.6,24.4,12.0,0000.0,0010.03,0005.97,0005.63
2023-02-12 21:09:00,,0824.7,5.00,0.00,22.7,21.1,00.0,31.6,24.5,12.0,0000.0,0010.25,0006.00,0005.67
2023-02-12 21:10:00,,0824.6,5.02,0.00,22.7,21.1,00.0,31.6,24.5,12.2,0000.0,0010.86,0006.07,0005.73
2023-02-12 21:11:00,,0824.6,4.99,0.00,22.7,21.1,00.0,31.6,24.5,12.1,0000.0,0010.71,0006.18,0005.83
2023-02-12 21:12:00,,0824.6,5.01,0.00,22.7,21.1,00.0,31.6,24.5,12.4,0000.0,0010.98,0006.27,0005.92
2023-02-12 21:13:00,,0824.6,5.00,0.00,22.7,21.1,00.0,31.6,24.5,12.1,0000.0,0011.44,0006.31,0005.99
2023-02-12 21:14:00,,0824.7,5.02,0.00,22.7,21.2,00.0,31.6,24.6,12.1,0000.0,0011.71,0006.35,0006.04
2023-02-12 21:15:00,,0824.6,4.97,0.00,22.7,21.1,00.0,31.6,24.5,12.1,0000.0,0011.69,0006.40,0006.08
2023-02-12 21:16:00,,0824.6,5.02,0.00,22.7,21.1,00.0,31.6,24.5,12.2,0000.0,0011.14,0006.44,0006.12
2023-02-12 21:17:00,,0824.6,5.02,0.00,22.7,21.2,00.0,31.6,24.6,12.2,0000.0,0011.99,0006.44,0006.13
2023-02-12 21:18:00,,0824.6,5.00,0.00,22.7,21.2,00.0,31.6,24.6,12.1,0000.0,0012.09,0006.45,0006.13
2023-02-12 21:19:00,,0824.7,4.98,0.00,22.7,21.2,00.0,31.6,24.5,12.2,0000.0,0011.99,0006.42,0006.11
2023-02-12 21:20:00,,0824.6,5.02,0.00,22.7,21.1,00.0,31.6,24.5,12.3,0000.0,0011.66,0006.41,0006.11
2023-02-12 21:21:00,,0824.6,5.02,0.00,22.7,21.1,00.0,31.6,24.5,12.6,0000.0,0011.09,0006.39,0006.11
2023-02-12 21:22:00,,0824.6,5.03,0.00,22.7,21.1,00.0,31.6,24.5,12.6,0000.0,0011.45,0006.38,0006.11
2023-02-12 21:23:00,,0824.6,5.01,0.00,22.7,21.1,00.0,31.6,24.5,12.6,0000.0,0011.28,0006.38,0006.11
2023-02-12 21:24:00,,0824.6,5.00,0.00,22.7,21.1,00.0,31.6,24.5,12.3,0000.0,0010.88,0006.41,0006.12
2023-02-12 21:25:00,,0824.5,4.98,0.00,22.7,21.1,00.0,31.6,24.5,12.4,0000.0,0010.77,0006.41,0006.12
2023-02-12 21:26:00,,0824.7,4.98,0.00,22.7,21.0,00.0,31.6,24.5,12.2,0000.0,0010.91,0006.42,0006.13
2023-02-12 21:27:00,,0824.6,5.00,0.00,22.6,21.0,00.0,31.5,24.4,12.2,0000.0,0010.98,0006.41,0006.10
2023-02-12 21:28:00,,0824.5,5.00,0.00,22.6,21.0,00.0,31.5,24.4,12.2,0000.0,0010.72,0006.41,0006.06
2023-02-12 21:29:00,,0824.6,4.99,0.00,22.6,20.9,00.0,31.5,24.4,12.3,0000.0,0010.71,0006.38,0006.03
2023-02-12 21:30:00,,0824.6,4.98,0.00,22.6,20.9,00.0,31.5,24.4,12.3,0000.0,0010.65,0006.35,0005.98
2023-02-12 21:31:00,,0824.6,5.01,0.00,22.6,21.0,00.0,31.5,24.4,12.2,0000.0,0010.61,0006.30,0005.92
2023-02-12 21:32:00,,0824.6,4.98,0.00,22.6,21.0,00.0,31.5,24.4,12.3,0000.0,0010.54,0006.21,0005.84
2023-02-12 21:33:00,,0824.6,4.97,0.00,22.6,21.0,00.0,31.5,24.4,12.3,0000.0,0010.07,0006.12,0005.75
2023-02-12 21:34:00,,0824.7,4.99,0.00,22.6,21.0,00.0,31.5,24.4,12.2,0000.0,0009.94,0006.04,0005.66
2023-02-12 21:35:00,,0824.7,5.02,0.00,22.6,21.0,00.0,31.5,24.4,12.2,0000.0,0009.83,0005.99,0005.61
2023-02-12 21:36:00,,0824.7,5.01,0.00,22.6,21.0,00.0,31.5,24.4,12.1,0000.0,0009.63,0005.95,0005.57
2023-02-12 21:37:00,,0824.7,5.01,0.00,22.6,21.0,00.0,31.5,24.4,12.3,0000.0,0009.59,0005.95,0005.54
2023-02-12 21:38:00,,0824.6,4.99,0.00,22.6,20.9,00.0,31.5,24.4,12.2,0000.0,0009.45,0005.92,0005.51
2023-02-12 21:39:00,,0824.7,4.98,0.00,22.6,21.0,00.0,31.5,24.4,12.3,0000.0,0008.96,0005.86,0005.49
2023-02-12 21:40:00,,0824.6,5.00,0.00,22.6,21.0,00.0,31.5,24.4,12.3,0000.0,0008.59,0005.83,0005.50
2023-02-12 21:41:00,,0824.7,5.02,0.00,22.6,21.0,00.0,31.5,24.4,12.5,0000.0,0008.61,0005.84,0005.52
2023-02-12 21:42:00,,0824.6,5.01,0.00,22.6,21.0,00.0,31.5,24.4,12.3,0000.0,0008.90,0005.85,0005.56
2023-02-12 21:43:00,,0824.6,4.99,0.00,22.6,21.0,00.0,31.5,24.4,12.3,0000.0,0008.90,0005.86,0005.58
2023-02-12 21:44:00,,0824.7,4.99,0.00,22.6,21.0,00.0,31.5,24.4,13.0,0000.0,0008.83,0005.86,0005.60
2023-02-12 21:45:00,,0824.7,4.98,0.00,22.6,21.0,00.0,31.5,24.4,13.2,0000.0,0008.92,0005.89,0005.61
2023-02-12 21:46:00,,0824.6,5.00,0.00,22.6,21.0,00.0,31.5,24.4,13.1,0000.0,0008.95,0005.90,0005.60
2023-02-12 21:47:00,,0824.7,5.00,0.00,22.6,21.0,00.0,31.5,24.4,13.3,0000.0,0008.96,0005.89,0005.59
2023-02-12 21:48:00,,0824.7,5.02,0.00,22.6,21.1,00.0,31.5,24.5,13.2,0000.0,0008.88,0005.86,0005.56
2023-02-12 21:49:00,,0824.6,5.01,0.00,22.6,21.0,00.0,31.5,24.4,13.1,0000.0,0008.80,0005.82,0005.54
2023-02-12 21:50:00,,0824.7,5.00,0.00,22.6,21.0,00.0,31.5,24.5,13.0,0000.0,0008.84,0005.81,0005.52
2023-02-12 21:51:00,,0824.7,4.99,0.00,22.6,21.0,00.0,31.5,24.4,13.0,0000.0,0008.92,0005.81,0005.50
2023-02-12 21:52:00,,0824.7,4.99,0.00,22.6,20.9,00.0,31.5,24.4,12.8,0000.0,0008.97,0005.79,0005.48
2023-02-12 21:53:00,,0824.6,5.03,0.00,22.6,20.8,00.0,31.5,24.3,13.0,0000.0,0008.67,0005.75,0005.44
2023-02-12 21:54:00,,0824.7,5.01,0.00,22.6,20.8,00.0,31.5,24.3,13.0,0000.0,0008.58,0005.72,0005.41
2023-02-12 21:55:00,,0824.7,4.98,0.00,22.5,20.8,00.0,31.5,24.3,12.8,0000.0,0008.51,0005.68,0005.37
2023-02-12 21:56:00,,0824.6,5.03,0.00,22.5,20.8,00.0,31.4,24.3,12.7,0000.0,0008.50,0005.67,0005.34
2023-02-12 21:57:00,,0824.6,4.98,0.00,22.5,20.8,00.0,31.4,24.3,12.7,0000.0,0009.25,0005.66,0005.31
2023-02-12 21:58:00,,0824.7,5.00,0.00,22.5,20.7,00.0,31.4,24.3,12.9,0000.0,0009.20,0005.60,0005.27
2023-02-12 21:59:00,,0824.7,4.98,0.00,22.5,20.7,00.0,31.4,24.2,12.9,0000.0,0009.13,0005.55,0005.24
